N4CRH-13 Weather Reports


time (UTC)temp
C
wind
direction
speed
KPH
gust
KPH
rain 1hr
cm
rain 24hr
cm
rain mn
cm
humidity
%
barometer
mb
20260906221249 29 327 4.8 11.3 0.00 0.00 0.00 35 1296.5
20260906220745 28 207 8.0 22.5 0.00 0.00 0.00 37 1296.5
20260906220240 27 160 11.3 24.1 0.00 0.00 0.00 38 1296.9
20260906215739 28 154 9.7 14.5 0.00 0.00 0.00 37 1296.9
20260906215239 30 161 14.5 24.1 0.00 0.00 0.00 34 1297.0
20260906214737 29 175 8.0 17.7 0.00 0.00 0.00 35 1297.0
20260906214233 30 105 14.5 22.5 0.00 0.00 0.00 34 1297.1
20260906213732 29 191 9.7 20.9 0.00 0.00 0.00 36 1297.3
20260906213225 30 91 12.9 24.1 0.00 0.00 0.00 34 1297.1
20260906212723 29 182 9.7 33.8 0.00 0.00 0.00 35 1297.3
20260906212219 29 162 19.3 29.0 0.00 0.00 0.00 36 1297.5
20260906211718 30 184 11.3 29.0 0.00 0.00 0.00 35 1297.5
20260906211209 30 157 11.3 32.2 0.00 0.00 0.00 34 1297.4
20260906210704 30 127 17.7 27.4 0.00 0.00 0.00 35 1297.5
20260906210204 30 148 20.9 27.4 0.00 0.00 0.00 34 1297.4
20260906205658 30 218 12.9 20.9 0.00 0.00 0.00 33 1297.5
20260906205154 30 143 25.7 32.2 0.00 0.00 0.00 31 1297.8
20260906204649 30 194 6.4 24.1 0.00 0.00 0.00 33 1297.6
20260906204143 30 125 16.1 24.1 0.00 0.00 0.00 33 1297.8
20260906203643 30 261 8.0 12.9 0.00 0.00 0.00 32 1298.0
20260906203138 30 149 19.3 33.8 0.00 0.00 0.00 32 1298.0
20260906202635 30 159 9.7 14.5 0.00 0.00 0.00 32 1297.9
20260906202134 30 104 9.7 12.9 0.00 0.00 0.00 32 1298.1
20260906201629 29 135 14.5 24.1 0.00 0.00 0.00 33 1298.1
20260906201128 29 123 17.7 24.1 0.00 0.00 0.00 33 1298.1
20260906200625 30 134 20.9 27.4 0.00 0.00 0.00 32 1298.0
20260906200121 30 165 9.7 14.5 0.00 0.00 0.00 32 1298.2
20260906195620 29 120 8.0 14.5 0.00 0.00 0.00 33 1298.4
20260906195118 30 301 6.4 14.5 0.00 0.00 0.00 31 1298.4
20260906194614 30 141 17.7 25.7 0.00 0.00 0.00 32 1298.5
20260906194109 30 157 11.3 16.1 0.00 0.00 0.00 33 1298.2
20260906193609 30 176 8.0 14.5 0.00 0.00 0.00 32 1298.8
20260906193104 30 346 0.0 12.9 0.00 0.00 0.00 32 1298.7
20260906192559 30 133 6.4 14.5 0.00 0.00 0.00 31 1298.6
20260906192058 30 237 6.4 12.9 0.00 0.00 0.00 31 1298.6
20260906191554 30 217 8.0 14.5 0.00 0.00 0.00 31 1298.8
20260906191053 30 176 4.8 12.9 0.00 0.00 0.00 30 1299.0
20260906190552 30 128 4.8 16.1 0.00 0.00 0.00 31 1299.0
20260906190047 30 297 4.8 9.7 0.00 0.00 0.00 30 1299.0
20260906185546 30 160 4.8 11.3 0.00 0.00 0.00 30 1299.2
20260906185045 30 184 8.0 11.3 0.00 0.00 0.00 31 1299.1
20260906184540 30 20 8.0 16.1 0.00 0.00 0.00 32 1299.3
20260906184036 30 187 8.0 11.3 0.00 0.00 0.00 30 1299.5
20260906183532 30 264 1.6 14.5 0.00 0.00 0.00 31 1299.6
20260906183027 29 148 6.4 12.9 0.00 0.00 0.00 35 1299.5
20260906182522 29 332 0.0 9.7 0.00 0.00 0.00 34 1299.5
20260906182019 29 11 1.6 3.2 0.00 0.00 0.00 33 1299.8
20260906181514 28 152 3.2 8.0 0.00 0.00 0.00 34 1300.2
20260906181009 28 127 8.0 14.5 0.00 0.00 0.00 34 1299.9
20260906180504 29 241 0.0 4.8 0.00 0.00 0.00 34 1299.9
20260906180002 28 167 8.0 12.9 0.00 0.00 0.00 34 1300.3
20260906175457 28 235 4.8 9.7 0.00 0.00 0.00 34 1300.4
20260906174956 28 345 0.0 4.8 0.00 0.00 0.00 34 1300.5
20260906174455 27 14 0.0 1.6 0.00 0.00 0.00 38 1300.7
20260906173950 28 119 4.8 11.3 0.00 0.00 0.00 35 1300.7
20260906173445 27 99 8.0 9.7 0.00 0.00 0.00 36 1300.5
20260906172945 27 83 4.8 4.8 0.00 0.00 0.00 36 1300.7
20260906172441 28 138 6.4 12.9 0.00 0.00 0.00 35 1300.9
20260906171936 27 200 4.8 9.7 0.00 0.00 0.00 36 1301.0
20260906171431 27 183 0.0 3.2 0.00 0.00 0.00 36 1301.0
20260906170927 27 151 6.4 11.3 0.00 0.00 0.00 36 1301.2
20260906170423 27 114 11.3 12.9 0.00 0.00 0.00 34 1301.0
20260906165919 27 276 1.6 9.7 0.00 0.00 0.00 36 1301.3
20260906165418 27 169 4.8 8.0 0.00 0.00 0.00 37 1301.2
20260906164914 26 73 3.2 8.0 0.00 0.00 0.00 34 1301.4
20260906164412 26 120 3.2 8.0 0.00 0.00 0.00 33 1301.4
20260906163909 26 122 1.6 11.3 0.00 0.00 0.00 37 1301.4
20260906163404 26 160 3.2 3.2 0.00 0.00 0.00 36 1301.6
20260906162902 26 327 0.0 8.0 0.00 0.00 0.00 35 1301.6
20260906162401 26 294 0.0 8.0 0.00 0.00 0.00 39 1301.5
20260906161857 25 65 4.8 4.8 0.00 0.00 0.00 38 1301.6
20260906161355 25 319 0.0 1.6 0.00 0.00 0.00 38 1301.6
20260906160855 24 151 3.2 8.0 0.00 0.00 0.00 41 1301.5
20260906160348 24 132 1.6 3.2 0.00 0.00 0.00 40 1301.8
20260906155847 25 24 1.6 1.6 0.00 0.00 0.00 41 1301.5
20260906155341 25 285 0.0 1.6 0.00 0.00 0.00 41 1301.6
20260906154837 25 94 1.6 4.8 0.00 0.00 0.00 40 1301.5
20260906154332 23 92 4.8 4.8 0.00 0.00 0.00 43 1301.4
20260906153830 23 207 0.0 1.6 0.00 0.00 0.00 43 1301.5
20260906153325 24 229 3.2 3.2 0.00 0.00 0.00 45 1301.3
20260906152819 23 299 0.0 0.0 0.00 0.00 0.00 45 1301.0
20260906152315 21 354 0.0 1.6 0.00 0.00 0.00 49 1301.3
20260906151813 22 16 3.2 3.2 0.00 0.00 0.00 46 1301.2
20260906151310 22 13 0.0 1.6 0.00 0.00 0.00 47 1301.4
20260906150805 23 55 0.0 3.2 0.00 0.00 0.00 46 1301.3
20260906150301 21 118 0.0 1.6 0.00 0.00 0.00 47 1301.8
20260906145800 21 286 0.0 0.0 0.00 0.00 0.00 49 1301.3
20260906145258 22 300 0.0 0.0 0.00 0.00 0.00 47 1301.5
20260906144753 21 54 0.0 3.2 0.00 0.00 0.00 49 1301.3
20260906144248 21 123 0.0 0.0 0.00 0.00 0.00 48 1301.5
20260906143747 20 297 0.0 1.6 0.00 0.00 0.00 51 1301.6
20260906143244 20 138 4.8 4.8 0.00 0.00 0.00 52 1301.5
20260906142744 20 39 0.0 1.6 0.00 0.00 0.00 55 1301.5
20260906142239 20 249 0.0 1.6 0.00 0.00 0.00 53 1301.4
20260906141738 20 282 0.0 1.6 0.00 0.00 0.00 51 1301.5
20260906141233 19 329 0.0 0.0 0.00 0.00 0.00 56 1301.6
20260906140732 18 304 0.0 0.0 0.00 0.00 0.00 58 1301.6
20260906140227 18 319 0.0 0.0 0.00 0.00 0.00 60 1301.4
20260906135724 17 144 0.0 0.0 0.00 0.00 0.00 64 1301.4
20260906135220 17 317 0.0 0.0 0.00 0.00 0.00 63 1301.4
20260906134716 17 316 0.0 0.0 0.00 0.00 0.00 62 1301.3
20260906134211 16 316 0.0 0.0 0.00 0.00 0.00 63 1300.9
20260906133706 16 289 0.0 0.0 0.00 0.00 0.00 61 1301.3
20260906133155 16 287 0.0 0.0 0.00 0.00 0.00 64 1300.9
20260906132651 15 259 0.0 0.0 0.00 0.00 0.00 65 1301.0
20260906132146 14 251 0.0 1.6 0.00 0.00 0.00 67 1300.9
20260906131642 13 239 0.0 3.2 0.00 0.00 0.00 69 1300.9
20260906131137 12 293 0.0 0.0 0.00 0.00 0.00 70 1300.9
20260906130632 12 253 0.0 1.6 0.00 0.00 0.00 73 1300.8
20260906130127 12 251 0.0 1.6 0.00 0.00 0.00 72 1301.0
20260906125624 12 265 1.6 1.6 0.00 0.00 0.00 73 1301.0
20260906125118 12 250 0.0 0.0 0.00 0.00 0.00 72 1300.9
20260906124614 12 266 0.0 1.6 0.00 0.00 0.00 73 1300.9
20260906124109 12 205 0.0 1.6 0.00 0.00 0.00 73 1300.9
20260906123609 12 276 0.0 1.6 0.00 0.00 0.00 72 1300.8
20260906123104 11 282 0.0 1.6 0.00 0.00 0.00 72 1300.8
20260906122603 12 261 0.0 1.6 0.00 0.00 0.00 72 1301.0
20260906122058 12 248 0.0 3.2 0.00 0.00 0.00 73 1300.8
20260906121554 12 254 0.0 0.0 0.00 0.00 0.00 71 1300.5
20260906121051 12 253 0.0 1.6 0.00 0.00 0.00 71 1300.8
20260906120545 12 272 0.0 1.6 0.00 0.00 0.00 69 1300.8
20260906120043 13 242 1.6 1.6 0.00 0.00 0.00 69 1300.9
20260906115542 12 278 0.0 0.0 0.00 0.00 0.00 67 1300.7
20260906115038 12 241 0.0 3.2 0.00 0.00 0.00 69 1300.7
20260906114532 12 277 0.0 1.6 0.00 0.00 0.00 70 1300.5
20260906114028 12 280 0.0 0.0 0.00 0.00 0.00 71 1300.9
20260906113527 12 238 0.0 1.6 0.00 0.00 0.00 70 1300.5
20260906113022 12 233 1.6 1.6 0.00 0.00 0.00 70 1300.8
20260906112517 12 212 1.6 3.2 0.00 0.00 0.00 72 1300.5
20260906112013 12 285 0.0 1.6 0.00 0.00 0.00 72 1300.5
20260906111507 12 280 0.0 0.0 0.00 0.00 0.00 70 1300.5
20260906111002 12 138 0.0 1.6 0.00 0.00 0.00 71 1300.4
20260906110457 12 231 1.6 1.6 0.00 0.00 0.00 70 1300.4
20260906105955 12 262 0.0 1.6 0.00 0.00 0.00 71 1300.4
20260906105452 12 272 0.0 1.6 0.00 0.00 0.00 70 1300.5
20260906104948 12 275 0.0 1.6 0.00 0.00 0.00 69 1300.7
20260906104446 12 267 0.0 1.6 0.00 0.00 0.00 70 1300.5
20260906103945 12 260 0.0 0.0 0.00 0.00 0.00 70 1300.4
20260906103444 12 278 0.0 0.0 0.00 0.00 0.00 71 1300.2
20260906102939 12 236 0.0 1.6 0.00 0.00 0.00 70 1300.3
20260906102438 13 269 0.0 0.0 0.00 0.00 0.00 71 1300.5
20260906101933 13 285 0.0 0.0 0.00 0.00 0.00 71 1300.7
20260906101429 13 288 0.0 0.0 0.00 0.00 0.00 68 1300.5
20260906100924 13 291 0.0 0.0 0.00 0.00 0.00 68 1300.4
20260906100423 13 268 0.0 1.6 0.00 0.00 0.00 68 1300.4
20260906095918 13 277 0.0 0.0 0.00 0.00 0.00 67 1300.3
20260906095414 14 235 1.6 1.6 0.00 0.00 0.00 66 1300.3
20260906094914 14 229 0.0 1.6 0.00 0.00 0.00 65 1300.5
20260906094408 14 217 1.6 3.2 0.00 0.00 0.00 66 1300.3
20260906093905 14 237 0.0 1.6 0.00 0.00 0.00 66 1300.3
20260906093401 14 268 0.0 0.0 0.00 0.00 0.00 66 1300.7
20260906092855 14 240 0.0 0.0 0.00 0.00 0.00 66 1300.4
20260906092354 14 251 0.0 1.6 0.00 0.00 0.00 66 1300.4
20260906091850 14 284 0.0 0.0 0.00 0.00 0.00 65 1300.3
20260906091346 14 271 0.0 1.6 0.00 0.00 0.00 66 1300.2
20260906090842 14 282 0.0 0.0 0.00 0.00 0.00 66 1300.4
20260906090342 15 260 0.0 0.0 0.00 0.00 0.00 67 1300.2
20260906085836 15 261 0.0 0.0 0.00 0.00 0.00 67 1300.2
20260906085335 15 285 0.0 1.6 0.00 0.00 0.00 66 1300.1
20260906084830 15 265 0.0 1.6 0.00 0.00 0.00 65 1300.3
20260906084330 15 243 0.0 1.6 0.00 0.00 0.00 66 1300.2
20260906083825 15 278 0.0 0.0 0.00 0.00 0.00 67 1300.3
20260906083320 15 275 0.0 0.0 0.00 0.00 0.00 67 1300.4
20260906082814 15 282 0.0 1.6 0.00 0.00 0.00 67 1300.2
20260906082310 14 241 0.0 1.6 0.00 0.00 0.00 66 1300.7
20260906081805 14 240 0.0 0.0 0.00 0.00 0.00 67 1300.5
20260906081301 14 267 0.0 0.0 0.00 0.00 0.00 67 1300.5
20260906080758 14 270 0.0 0.0 0.00 0.00 0.00 68 1300.4
20260906080254 15 262 0.0 1.6 0.00 0.00 0.00 67 1300.4
20260906075753 14 281 0.0 1.6 0.00 0.00 0.00 67 1300.7
20260906075253 14 260 0.0 0.0 0.00 0.00 0.00 68 1300.5
20260906074748 15 287 0.0 1.6 0.00 0.00 0.00 66 1300.5
20260906074247 14 280 0.0 1.6 0.00 0.00 0.00 68 1300.7
20260906073747 14 261 0.0 0.0 0.00 0.00 0.00 70 1300.7
20260906073242 15 248 0.0 1.6 0.00 0.00 0.00 70 1300.5
20260906072738 15 268 0.0 3.2 0.00 0.00 0.00 70 1300.8
20260906072234 15 282 0.0 3.2 0.00 0.00 0.00 71 1300.5
20260906071730 15 274 0.0 1.6 0.00 0.00 0.00 73 1300.5
20260906071230 15 265 0.0 0.0 0.00 0.00 0.00 71 1300.5
20260906070726 15 281 0.0 1.6 0.00 0.00 0.00 68 1300.9
20260906070222 15 295 0.0 0.0 0.00 0.00 0.00 68 1300.7
20260906065721 15 285 0.0 0.0 0.00 0.00 0.00 68 1300.8
20260906065217 16 282 0.0 3.2 0.00 0.00 0.00 67 1300.8
20260906064712 16 260 0.0 0.0 0.00 0.00 0.00 65 1300.7
20260906064208 17 273 0.0 0.0 0.00 0.00 0.00 66 1300.7
20260906063702 17 270 0.0 1.6 0.00 0.00 0.00 64 1300.9
20260906063158 18 290 1.6 8.0 0.00 0.00 0.00 58 1300.8
20260906062654 18 297 0.0 0.0 0.00 0.00 0.00 61 1300.8
20260906062152 19 263 4.8 4.8 0.00 0.00 0.00 59 1300.7
20260906061649 18 261 4.8 4.8 0.00 0.00 0.00 60 1300.8
20260906061148 19 293 6.4 9.7 0.00 0.00 0.00 59 1300.8
20260906060645 18 293 8.0 9.7 0.00 0.00 0.00 61 1300.8
20260906060142 20 304 3.2 8.0 0.00 0.00 0.00 59 1300.8
20260906055637 19 301 4.8 8.0 0.00 0.00 0.00 61 1300.5
20260906055132 20 282 4.8 8.0 0.00 0.00 0.00 58 1300.7
20260906054627 21 280 11.3 12.9 0.00 0.00 0.00 55 1300.7
20260906054122 20 286 4.8 9.7 0.00 0.00 0.00 56 1300.5
20260906053619 21 265 6.4 8.0 0.00 0.00 0.00 53 1300.5
20260906053114 20 248 14.5 16.1 0.00 0.00 0.00 53 1300.7
20260906052610 20 255 12.9 14.5 0.00 0.00 0.00 56 1300.7
20260906052106 19 264 4.8 4.8 0.00 0.00 0.00 57 1300.8
20260906051602 18 320 0.0 0.0 0.00 0.00 0.00 62 1300.8
20260906051057 20 321 0.0 1.6 0.00 0.00 0.00 61 1300.5
20260906050552 17 263 4.8 8.0 0.00 0.00 0.00 63 1300.8
20260906050047 17 308 0.0 0.0 0.00 0.00 0.00 69 1300.4
20260906045545 17 281 0.0 0.0 0.00 0.00 0.00 68 1300.5
20260906045042 17 281 0.0 1.6 0.00 0.00 0.00 68 1300.8
20260906044536 18 291 0.0 0.0 0.00 0.00 0.00 67 1300.5
20260906044032 17 286 0.0 0.0 0.00 0.00 0.00 67 1300.7
20260906043527 18 325 0.0 0.0 0.00 0.00 0.00 65 1300.8
20260906043024 18 293 0.0 0.0 0.00 0.00 0.00 63 1300.4
20260906042523 19 278 0.0 1.6 0.00 0.00 0.00 63 1300.5
20260906042023 19 212 0.0 3.2 0.00 0.00 0.00 63 1300.8
20260906041520 18 115 1.6 3.2 0.00 0.00 0.00 63 1300.4
20260906041019 20 97 4.8 4.8 0.00 0.00 0.00 61 1300.4
20260906040514 21 236 0.0 1.6 0.00 0.00 0.00 59 1300.4
20260906040010 21 7 0.0 4.8 0.00 0.00 0.00 58 1300.3
20260906035505 21 180 4.8 8.0 0.00 0.00 0.00 57 1300.4
20260906035000 21 102 1.6 8.0 0.00 0.00 0.00 58 1300.5
20260906034500 21 225 3.2 8.0 0.00 0.00 0.00 57 1300.4
20260906033955 21 333 3.2 8.0 0.00 0.00 0.00 57 1300.4
20260906033450 21 237 4.8 9.7 0.00 0.00 0.00 56 1300.3
20260906032946 22 239 4.8 11.3 0.00 0.00 0.00 55 1300.3
20260906032442 22 354 3.2 11.3 0.00 0.00 0.00 54 1300.3
20260906031936 22 192 3.2 9.7 0.00 0.00 0.00 54 1300.3
20260906031432 22 181 3.2 9.7 0.00 0.00 0.00 53 1300.4
20260906030927 21 195 6.4 16.1 0.00 0.00 0.00 53 1300.2
20260906030421 21 148 4.8 11.3 0.00 0.00 0.00 51 1300.4
20260906025916 20 121 3.2 9.7 0.00 0.00 0.00 48 1300.2
20260906025410 18 88 6.4 11.3 0.00 0.00 0.00 50 1300.2
20260906024909 17 180 6.4 8.0 0.00 0.00 0.00 54 1299.9
20260906024408 17 297 0.0 0.0 0.00 0.00 0.00 51 1299.6
20260906023904 17 224 0.0 1.6 0.00 0.00 0.00 51 1299.5
20260906023400 17 258 0.0 0.0 0.00 0.00 0.00 50 1299.6
20260906022854 17 268 0.0 0.0 0.00 0.00 0.00 51 1299.5
20260906022350 17 209 1.6 1.6 0.00 0.00 0.00 51 1299.5
20260906021846 18 279 0.0 0.0 0.00 0.00 0.00 50 1299.3
20260906021345 18 272 0.0 1.6 0.00 0.00 0.00 52 1299.5
20260906020840 18 238 1.6 1.6 0.00 0.00 0.00 51 1299.3
20260906020339 18 282 0.0 1.6 0.00 0.00 0.00 48 1299.2
20260906015834 18 252 1.6 1.6 0.00 0.00 0.00 49 1299.2
20260906015333 18 281 0.0 1.6 0.00 0.00 0.00 49 1299.0
20260906014832 19 237 0.0 1.6 0.00 0.00 0.00 49 1299.0
20260906014327 20 287 0.0 0.0 0.00 0.00 0.00 46 1299.1
20260906013824 20 255 0.0 1.6 0.00 0.00 0.00 44 1299.1
20260906013319 21 296 0.0 0.0 0.00 0.00 0.00 43 1299.0
20260906012814 21 302 0.0 0.0 0.00 0.00 0.00 41 1298.8
20260906012309 22 282 0.0 1.6 0.00 0.00 0.00 42 1299.0
20260906011804 22 262 0.0 0.0 0.00 0.00 0.00 40 1299.1
20260906011304 22 306 0.0 0.0 0.00 0.00 0.00 37 1299.0
20260906010800 23 293 0.0 4.8 0.00 0.00 0.00 37 1299.0
20260906010256 25 166 1.6 3.2 0.00 0.00 0.00 37 1298.8
20260906005751 25 301 3.2 8.0 0.00 0.00 0.00 34 1298.8
20260906005250 25 175 4.8 9.7 0.00 0.00 0.00 35 1299.2
20260906004749 25 293 0.0 1.6 0.00 0.00 0.00 34 1299.0
20260906004244 25 279 1.6 3.2 0.00 0.00 0.00 35 1299.0
20260906003738 26 212 6.4 20.9 0.00 0.00 0.00 31 1299.0
20260906003234 25 116 27.4 37.0 0.00 0.00 0.00 34 1298.8
20260906002735 25 196 14.5 25.7 0.00 0.00 0.00 36 1299.5
20260906002234 26 279 0.0 1.6 0.00 0.00 0.00 37 1299.3
20260906001730 25 267 0.0 1.6 0.00 0.00 0.00 39 1299.2
20260906001225 26 312 0.0 3.2 0.00 0.00 0.00 35 1299.3
20260906000720 26 234 8.0 11.3 0.00 0.00 0.00 31 1299.1
20260906000215 26 357 3.2 14.5 0.00 0.00 0.00 30 1299.2
20260905235715 27 296 9.7 11.3 0.00 0.00 0.00 30 1299.5
20260905235209 26 186 0.0 9.7 0.00 0.00 0.00 28 1299.6
20260905234705 26 238 9.7 20.9 0.00 0.00 0.00 29 1299.7
20260905234200 26 309 0.0 3.2 0.00 0.00 0.00 30 1299.3
20260905233656 26 303 0.0 3.2 0.00 0.00 0.00 29 1299.2
20260905233155 26 314 0.0 1.6 0.00 0.00 0.00 30 1299.3
20260905232650 26 276 9.7 17.7 0.00 0.00 0.00 31 1299.3
20260905232146 26 295 0.0 0.0 0.00 0.00 0.00 31 1299.5
20260905231641 26 277 0.0 1.6 0.00 0.00 0.00 32 1299.2
20260905231137 26 195 0.0 1.6 0.00 0.00 0.00 32 1299.2
20260905230633 26 285 0.0 1.6 0.00 0.00 0.00 31 1299.0
20260905230130 26 276 0.0 1.6 0.00 0.00 0.00 31 1298.8
20260905225624 27 124 1.6 4.8 0.00 0.00 0.00 30 1299.1
20260905225119 27 246 4.8 4.8 0.00 0.00 0.00 29 1298.8
20260905224613 27 194 4.8 11.3 0.00 0.00 0.00 29 1299.0
20260905224112 27 42 8.0 11.3 0.00 0.00 0.00 31 1299.0
20260905223610 27 248 3.2 14.5 0.00 0.00 0.00 30 1299.2
20260905223106 29 306 4.8 16.1 0.00 0.00 0.00 28 1299.2
20260905222606 30 123 8.0 17.7 0.00 0.00 0.00 28 1298.8
20260905222101 30 227 6.4 9.7 0.00 0.00 0.00 27 1299.1